Date String (YYYY-MM-DD hh:mm:ss) UTC,Instrument flags,Ambient pressure (hPa),Sample flow (lpm),Bypass flow (lpm),Sample temperature (°C),Ambient temperature (°C),ASC tube jacket temperature (°C),LED temperature (°C),Box temperature (°C),Sample RH (%),Span deviation,Mass concentration (μg/m³),Mass concentration (μg/m³),Mass concentration (μg/m³)
DateTimeUTC,F1_M11,P_M11,Q1_M11,Q2_M11,T1_M11,T2_M11,T3_M11,T4_M11,T5_M11,U1_M11,ZSPAN_M11,X0_M11,X2_M11,X1_M11
2022-02-26 05:00:00,,0830.7,5.00,0.00,21.8,21.4,00.0,30.9,23.3,07.6,-000.1,0019.50,0012.82,0011.81
2022-02-26 05:01:00,,0830.7,5.00,0.00,21.7,21.2,00.0,30.9,23.2,07.6,-000.3,0018.89,0012.85,0011.82
2022-02-26 05:02:00,,0830.8,5.00,0.00,21.6,21.0,00.0,30.8,23.1,07.7,-000.5,0018.75,0012.88,0011.81
2022-02-26 05:03:00,,0830.7,5.00,0.00,21.5,20.8,00.0,30.8,23.0,07.7,-000.5,0018.26,0012.85,0011.82
2022-02-26 05:04:00,,0830.7,5.01,0.00,21.5,20.7,00.0,30.8,22.9,07.7,-000.5,0018.59,0012.86,0011.80
2022-02-26 05:05:00,,0830.7,4.99,0.00,21.6,21.4,00.0,30.8,23.2,07.7,0000.0,0018.66,0012.85,0011.77
2022-02-26 05:06:00,,0830.7,5.00,0.00,21.7,22.2,00.0,30.8,23.5,07.6,-000.0,0018.42,0012.76,0011.74
2022-02-26 05:07:00,,0830.7,5.01,0.00,21.9,22.9,00.0,30.9,23.8,07.5,-000.3,0018.71,0012.68,0011.68
2022-02-26 05:08:00,,0830.7,4.99,0.00,22.0,22.8,00.0,30.9,23.9,07.5,-000.7,0018.58,0012.60,0011.59
2022-02-26 05:09:00,,0830.6,5.00,0.00,22.0,22.4,00.0,30.9,23.7,07.5,-000.6,0018.61,0012.61,0011.58
2022-02-26 05:10:00,,0830.7,5.01,0.00,21.9,22.1,00.0,30.9,23.6,07.5,-000.7,0019.04,0012.65,0011.64
2022-02-26 05:11:00,,0830.7,4.99,0.00,21.8,21.7,00.0,30.9,23.4,07.5,-000.4,0018.90,0012.72,0011.73
2022-02-26 05:12:00,,0830.6,5.01,0.00,21.8,21.5,00.0,30.9,23.3,07.6,-000.0,0019.05,0012.84,0011.83
2022-02-26 05:13:00,,0830.6,5.00,0.00,21.7,21.3,00.0,30.9,23.2,07.6,0000.2,0019.27,0012.99,0011.96
2022-02-26 05:14:00,,0830.6,5.00,0.00,21.7,21.1,00.0,30.8,23.2,07.6,0000.2,0019.91,0013.15,0012.12
2022-02-26 05:15:00,,0830.6,5.00,0.00,21.6,20.9,00.0,30.8,23.0,07.6,0000.2,0020.47,0013.22,0012.21
2022-02-26 05:16:00,,0830.6,4.98,0.00,21.5,20.8,00.0,30.8,23.0,07.7,-000.0,0020.47,0013.17,0012.20
2022-02-26 05:17:00,,0830.6,5.00,0.00,21.5,20.9,00.0,30.8,23.0,07.7,-000.1,0020.80,0013.16,0012.20
2022-02-26 05:18:00,,0830.6,5.01,0.00,21.6,21.6,00.0,30.8,23.3,07.7,-000.1,0020.60,0013.18,0012.24
2022-02-26 05:19:00,,0830.6,5.01,0.00,21.7,22.4,00.0,30.8,23.6,07.6,-000.1,0020.76,0013.21,0012.28
2022-02-26 05:20:00,,0830.6,5.00,0.00,21.9,23.0,00.0,30.9,23.8,07.6,-000.3,0020.67,0013.23,0012.31
2022-02-26 05:21:00,,0830.6,5.01,0.00,21.9,22.7,00.0,30.9,23.8,07.5,-000.1,0020.46,0013.35,0012.39
2022-02-26 05:22:00,,0830.6,5.00,0.00,21.9,22.3,00.0,30.9,23.7,07.5,-000.1,0020.40,0013.43,0012.46
2022-02-26 05:23:00,,0830.5,4.99,0.00,21.8,22.0,00.0,30.9,23.5,07.5,-000.3,0020.37,0013.47,0012.53
2022-02-26 05:24:00,,0830.6,5.02,0.00,21.8,21.7,00.0,30.9,23.4,07.5,-000.6,0020.81,0013.51,0012.61
2022-02-26 05:25:00,,0830.6,4.99,0.00,21.7,21.4,00.0,30.8,23.3,07.5,-000.6,0020.62,0013.50,0012.63
2022-02-26 05:26:00,,0830.5,5.01,0.00,21.7,21.2,00.0,30.8,23.2,07.5,-000.9,0019.79,0013.55,0012.68
2022-02-26 05:27:00,,0830.6,4.98,0.00,21.6,21.1,00.0,30.8,23.1,07.5,-000.9,0019.85,0013.74,0012.85
2022-02-26 05:28:00,,0830.6,5.00,0.00,21.6,20.9,00.0,30.8,23.1,07.5,-001.1,0019.89,0013.95,0013.04
2022-02-26 05:29:00,,0830.6,5.01,0.00,21.5,20.8,00.0,30.7,23.0,07.6,-001.2,0020.47,0014.15,0013.21
2022-02-26 05:30:00,,0830.5,5.00,0.00,21.5,21.0,00.0,30.7,23.1,07.6,-001.1,0020.77,0014.33,0013.41
2022-02-26 05:31:00,,0830.6,5.00,0.00,21.6,21.8,00.0,30.8,23.3,07.6,-000.8,0021.40,0014.53,0013.58
2022-02-26 05:32:00,,0830.5,5.01,0.00,21.8,22.6,00.0,30.8,23.6,07.5,-000.5,0022.00,0014.61,0013.66
2022-02-26 05:33:00,,0830.5,4.99,0.00,21.9,23.0,00.0,30.8,23.9,07.4,-000.7,0022.39,0014.68,0013.70
2022-02-26 05:34:00,,0830.6,5.00,0.00,22.0,22.7,00.0,30.9,23.9,07.4,-000.6,0022.43,0014.69,0013.71
2022-02-26 05:35:00,,0830.5,5.00,0.00,21.9,22.3,00.0,30.9,23.7,07.4,-000.4,0022.24,0014.68,0013.73
2022-02-26 05:36:00,,0830.5,5.01,0.00,21.9,21.9,00.0,30.9,23.6,07.4,-000.6,0022.27,0014.71,0013.73
2022-02-26 05:37:00,,0830.5,5.01,0.00,21.8,21.6,00.0,30.8,23.4,07.4,-000.6,0022.33,0014.69,0013.72
2022-02-26 05:38:00,,0830.5,4.98,0.00,21.7,21.4,00.0,30.8,23.3,07.4,-000.4,0022.53,0014.64,0013.67
2022-02-26 05:39:00,,0830.5,5.00,0.00,21.7,21.1,00.0,30.8,23.2,07.4,-000.1,0023.01,0014.55,0013.60
2022-02-26 05:40:00,,0830.5,5.01,0.00,21.6,20.9,00.0,30.8,23.2,07.4,0000.1,0022.55,0014.54,0013.54
2022-02-26 05:41:00,,0830.5,5.01,0.00,21.6,20.8,00.0,30.8,23.1,07.4,0000.5,0022.15,0014.48,0013.47
2022-02-26 05:42:00,,0830.5,5.00,0.00,21.5,20.7,00.0,30.8,23.0,07.5,0000.5,0021.93,0014.39,0013.38
2022-02-26 05:43:00,,0830.5,5.01,0.00,21.5,20.7,00.0,30.7,23.0,07.5,0000.1,0021.89,0014.23,0013.25
2022-02-26 05:44:00,,0830.5,4.99,0.00,21.6,21.4,00.0,30.7,23.2,07.5,0000.1,0021.72,0014.07,0013.10
2022-02-26 05:45:00,,0830.5,5.00,0.00,21.7,22.2,00.0,30.8,23.5,07.5,0000.1,0021.94,0013.90,0012.94
2022-02-26 05:46:00,,0830.6,5.01,0.00,21.9,22.9,00.0,30.8,23.8,07.4,0000.1,0022.00,0013.77,0012.78
2022-02-26 05:47:00,,0830.5,4.99,0.00,21.9,22.7,00.0,30.8,23.8,07.4,0000.4,0021.43,0013.60,0012.61
2022-02-26 05:48:00,,0830.4,4.99,0.00,21.9,22.3,00.0,30.8,23.7,07.4,0000.8,0021.41,0013.49,0012.47
2022-02-26 05:49:00,,0830.5,5.01,0.00,21.8,21.9,00.0,30.8,23.5,07.5,0000.4,0021.14,0013.38,0012.36
2022-02-26 05:50:00,,0830.5,4.99,0.00,21.8,21.6,00.0,30.8,23.4,07.5,0000.5,0020.60,0013.28,0012.26
2022-02-26 05:51:00,,0830.4,5.01,0.00,21.7,21.3,00.0,30.8,23.2,07.5,0000.8,0020.60,0013.14,0012.12
2022-02-26 05:52:00,,0830.4,5.00,0.00,21.6,21.1,00.0,30.8,23.1,07.6,0000.4,0020.63,0012.96,0011.98
2022-02-26 05:53:00,,0830.4,5.00,0.00,21.6,20.9,00.0,30.8,23.0,07.6,0000.2,0020.35,0012.82,0011.83
2022-02-26 05:54:00,,0830.4,5.00,0.00,21.5,20.7,00.0,30.7,23.0,07.6,0000.0,0019.82,0012.70,0011.73
2022-02-26 05:55:00,,0830.4,5.00,0.00,21.4,20.5,00.0,30.7,22.9,07.6,0000.1,0019.54,0012.61,0011.65
2022-02-26 05:56:00,,0830.4,5.01,0.00,21.5,21.0,00.0,30.7,23.0,07.6,0000.2,0019.18,0012.51,0011.57
2022-02-26 05:57:00,,0830.4,5.00,0.00,21.6,21.9,00.0,30.7,23.3,07.5,0000.1,0018.50,0012.40,0011.49
2022-02-26 05:58:00,,0830.4,4.99,0.00,21.8,22.6,00.0,30.8,23.6,07.4,0000.1,0018.75,0012.29,0011.39
2022-02-26 05:59:00,,0830.4,5.01,0.00,21.9,22.6,00.0,30.8,23.8,07.3,0000.1,0018.62,0012.16,0011.30
